Lexington Weather

Lexington, Massachusetts, USA

75°F
9/22/2021 1:18pm 
  • Lexington Conditions: Overcast
  • Temperature: 75.2°F / 24.0°CColder 0.2°F than last hour.
  • Dew Point: 68.5°FDecreased 0.6°Fsince last hour.
  • Relative Humidity: 80%Decreased 1.0% since last hour.
  • Wind: Wind from SSE SSE 5 mph, 10-min avg: 3 mph, gust: 9 mph
  • Barometer: 30.10 inFalling 0.02  inHg/hr Falling Slowly
  • Visibility: 10 miles
  • Rain Today: 0.00 in
  •   

Regional Weather Roundup
for Boston / Norton, MA

        
000
ASUS41 KBOX 202204
RWRBOX

REGIONAL WEATHER ROUNDUP
NATIONAL WEATHER SERVICE BOSTON/NORTON MA
600 PM EDT MON SEP 20 2021

NOTE:  "FAIR" INDICATES FEW OR NO CLOUDS BELOW 12,000 FEET WITH NO 
SIGNIFICANT WEATHER AND/OR OBSTRUCTIONS TO VISIBILITY.

MAZALL-202300-
EASTERN MASSACHUSETTS
  
CITY           SKY/WX    TMP DP  RH WIND       PRES   REMARKS
BOSTON         PTCLDY    67  54  63 E13       30.39R                  
BEVERLY        CLEAR     65  53  65 SE9       30.38S                  
LAWRENCE       CLEAR     68  51  54 E6        30.39S                  
BEDFORD        CLEAR     68  50  52 E12       30.36S                  
BLUE HILL      NOT AVBL                                               
NORWOOD        CLEAR     68  50  52 E7        30.37R                  
MARSHFIELD     CLEAR     66  55  68 E7        30.39S                  
PLYMOUTH       CLEAR     66  54  65 E8        30.39R                  
TAUNTON        CLEAR     68  50  52 E7        30.37R                  
NEW BEDFORD    CLEAR     69  53  56 E6        30.37R                  
$$

MAZALL-202300-
CAPE COD AND THE ISLANDS
  
CITY           SKY/WX    TMP DP  RH WIND       PRES   REMARKS
FALMOUTH       CLEAR     66  52  59 NE12      30.38S                  
HYANNIS        CLEAR     66  55  67 E5        30.37R                  
CHATHAM        CLEAR     65  52  62 E8        30.40R                  
PROVINCETOWN   CLEAR     65  55  70 E8        30.40S                  
NANTUCKET      CLEAR     67  52  58 E7        30.38S                  
MARTHAS VNYRD  CLEAR     67  54  63 E7        30.38R                  
$$
 
MAZALL-202300-
CENTRAL AND WESTERN MASSACHUSETTS
  
CITY           SKY/WX    TMP DP  RH WIND       PRES   REMARKS
WORCESTER      CLEAR     69  52  54 SE7       30.38R                  
FITCHBURG      CLEAR     72  50  45 SE8       30.36S                  
ORANGE         CLEAR     72  56  57 S6        30.36S                  
SPRINGFIELD    PTCLDY    73  56  56 S3        30.33S                  
WESTFIELD      CLEAR     72  58  61 S5        30.34R                  
NORTH ADAMS    PTCLDY    73  56  54 SE8       30.32S                  
PITTSFIELD     PTCLDY    69  54  58 S5        30.34R                  
$$
 
RIZALL-202300-
RHODE ISLAND
  
CITY           SKY/WX    TMP DP  RH WIND       PRES   REMARKS
PROVIDENCE     PTCLDY    70  55  59 SE10      30.37S                  
NEWPORT        CLEAR     66  54  65 S7        30.37S                  
SMITHFIELD     PTCLDY    66  57  72 VRB3      30.38R                  
WESTERLY       CLEAR     66  56  70 SE6       30.37S                  
$$
 
CTZALL-202300-
CONNECTICUT
  
CITY           SKY/WX    TMP DP  RH WIND       PRES   REMARKS
BRADLEY INTL   PTCLDY    72  56  57 S10       30.34S                  
HARTFORD       CLEAR     72  54  53 S9        30.34S                  
BRIDGEPORT     PTCLDY    71  54  54 SE9       30.35S                  
DANBURY        PTCLDY    71  57  61 SE9       30.36R                  
GROTON         CLEAR     68  55  63 SE7       30.36S                  
NEW HAVEN      CLEAR     72  56  57 SE6       30.36S                  
CHESTER        FAIR      68  55  64 VRB3      30.37S                  
MERIDEN        CLEAR     70  53  54 S7        30.35S                  
WILLIMANTIC    CLEAR     70  54  56 S8        30.36R                  
OXFORD         CLEAR     68  56  65 SE9       30.37S                  
$$

MEZ002-015-021-024-NHZ003-005-008-011-012-014-VTZ005-008-202300-
NORTHERN NEW ENGLAND
  
CITY           SKY/WX    TMP DP  RH WIND       PRES   REMARKS
PORTLAND ME    CLEAR     63  52  67 S10       30.40R                  
BANGOR ME      PTCLDY    66  49  54 S10       30.38R                  
CONCORD NH     CLEAR     70  53  54 SE5       30.36S                  
MANCHESTER NH  PTCLDY    73  53  49 SE8       30.34S                  
NASHUA NH      PTCLDY    69  57  65 SE3       30.37S                  
PORTSMOUTH NH  PTCLDY    65  51  60 SE10      30.40R                  
JAFFREY NH     PTCLDY    69  57  65 SE5       30.37S                  
KEENE NH       PTCLDY    72  56  57 SW5       30.35S                  
BURLINGTON VT  CLEAR     74  51  44 S9        30.29S                  
MT. WASHINGTON PTCLDY    54  10  17 SW10        N/A                   
$$

NYZ052-076-202300-
EASTERN NEW YORK
  
CITY           SKY/WX    TMP DP  RH WIND       PRES   REMARKS
ALBANY         PTCLDY    70  56  61 S10       30.31R                  
NEW YORK CITY  MOCLDY    73  53  49 S14       30.33S                  
$$
 
ANZALL-202300-
MARINE OBSERVATIONS
  
STATION/POSITION TIME  TEMP    WIND        PRES    VSBY  WAVE
                       AIR SEA DIR/SP/G                  HT/PER
                 (UTC) (F)     (DEG/KT/KT) (MB)    (MI)  (FT/S)
BOSTON BUOY      2140      66  110/ 10/ 12 1029.6R
BUZZARDS BAY     2100          130/ 13/ 14 1029.2F
NANTUCKET SOUND  2140   67 72   90/ 10/ 12 1028.7R
MASS BAY-STELLWA 2104   65     130/ 10/ 12 1029.0R  1 7/8  3/11
ISLE OF SHOALS   2100   64     140/ 13/ 14 1028.4R
S OF BLOCK IS    2126      71                N/A           3/ 7
$$

......................KEY.........................
  SKY/WX - SKY CONDITION/PRESENT WEATHER
  TMP    - TEMPERATURE IN FAHRENHEIT
  DWPT   - DEWPOINT IN FAHRENHEIT
  RH     - RELATIVE HUMIDITY IN PERCENT
  WIND   - DIRECTION AND SPEED IN MPH
  PRES   - MEAN SEA LEVEL PRESSURE IN INCHES OF HG
  WCI    - WIND CHILL INDEX
  VSB    - VISIBILITY IN MILES
  HX     - HEAT INDEX
  TC     - TEMPERATURE IN CELSIUS
  VRB    - VARIABLE WIND DIRECTION
  N/A    - NOT AVAILABLE
  
      

Other recent Regional Weather Roundups

Wed Sep 22, 1:04pm

Wed Sep 22, 12:05pm

Wed Sep 22, 11:04am

Wed Sep 22, 10:04am

Wed Sep 22, 9:04am

Wed Sep 22, 8:04am

Wed Sep 22, 7:04am

Wed Sep 22, 6:04am

Wed Sep 22, 5:04am

Wed Sep 22, 4:04am

Wed Sep 22, 3:04am

Wed Sep 22, 2:04am

Wed Sep 22, 1:04am

Wed Sep 22, 12:04am

Tue Sep 21, 11:04pm

Tue Sep 21, 10:04pm

Tue Sep 21, 9:04pm

Tue Sep 21, 8:04pm

Tue Sep 21, 7:04pm

Tue Sep 21, 6:04pm

Tue Sep 21, 5:04pm

Tue Sep 21, 4:04pm

Tue Sep 21, 3:04pm

Tue Sep 21, 2:04pm

Tue Sep 21, 1:04pm

Tue Sep 21, 12:04pm

Tue Sep 21, 11:04am

Tue Sep 21, 10:04am

Tue Sep 21, 9:04am

Tue Sep 21, 8:04am

Tue Sep 21, 7:04am

Tue Sep 21, 6:04am

Tue Sep 21, 5:04am

Tue Sep 21, 4:04am

Tue Sep 21, 3:04am

Tue Sep 21, 2:04am

Tue Sep 21, 1:04am

Tue Sep 21, 12:04am

Mon Sep 20, 11:04pm

Mon Sep 20, 10:04pm

Mon Sep 20, 9:04pm

Mon Sep 20, 8:04pm

Mon Sep 20, 7:04pm

Mon Sep 20, 5:04pm

Mon Sep 20, 4:04pm

Mon Sep 20, 3:04pm

Mon Sep 20, 2:04pm

Mon Sep 20, 1:04pm

Mon Sep 20, 12:04pm

Mon Sep 20, 11:04am

Mon Sep 20, 10:04am

Mon Sep 20, 9:04am

Mon Sep 20, 7:04am

Mon Sep 20, 6:04am

Mon Sep 20, 5:04am

Mon Sep 20, 4:04am

Mon Sep 20, 3:04am

Mon Sep 20, 2:04am

Mon Sep 20, 1:04am

Mon Sep 20, 12:04am

Sun Sep 19, 11:04pm

Sun Sep 19, 10:04pm

Sun Sep 19, 9:04pm

Sun Sep 19, 8:04pm

Sun Sep 19, 7:04pm

Sun Sep 19, 6:04pm

Sun Sep 19, 5:04pm

Sun Sep 19, 4:04pm

Sun Sep 19, 3:04pm

Sun Sep 19, 2:05pm

Sun Sep 19, 1:04pm

Sun Sep 19, 12:04pm

Sun Sep 19, 11:04am

Sun Sep 19, 10:05am

Sun Sep 19, 9:04am

Sun Sep 19, 8:04am

Sun Sep 19, 7:04am

Sun Sep 19, 6:04am

Sun Sep 19, 5:04am

Sun Sep 19, 4:04am

Sun Sep 19, 3:04am

Sun Sep 19, 2:04am

Sun Sep 19, 1:04am

Sun Sep 19, 12:04am

Sat Sep 18, 11:05pm

Sat Sep 18, 10:04pm

Sat Sep 18, 9:04pm

Sat Sep 18, 8:04pm

Sat Sep 18, 7:04pm

Sat Sep 18, 6:04pm

Sat Sep 18, 5:04pm

Sat Sep 18, 4:04pm

Sat Sep 18, 3:04pm

Sat Sep 18, 2:04pm

Sat Sep 18, 1:04pm

Sat Sep 18, 12:04pm

Sat Sep 18, 11:04am

Sat Sep 18, 10:04am

Sat Sep 18, 9:04am

Sat Sep 18, 8:04am

Sat Sep 18, 7:04am

Sat Sep 18, 6:04am

Sat Sep 18, 5:04am

Sat Sep 18, 4:04am

Sat Sep 18, 3:04am

Sat Sep 18, 2:04am

Sat Sep 18, 1:04am

Sat Sep 18, 12:04am

Fri Sep 17, 11:04pm

Fri Sep 17, 10:04pm

Fri Sep 17, 9:04pm

Fri Sep 17, 8:04pm

Fri Sep 17, 7:04pm

Fri Sep 17, 6:04pm

Fri Sep 17, 5:04pm

Fri Sep 17, 4:04pm

Fri Sep 17, 3:04pm

Fri Sep 17, 2:04pm

Fri Sep 17, 1:04pm

Fri Sep 17, 12:05pm

Fri Sep 17, 11:04am

Fri Sep 17, 10:04am

Fri Sep 17, 9:04am

Fri Sep 17, 8:04am

Fri Sep 17, 7:04am

Fri Sep 17, 6:04am

Fri Sep 17, 5:04am

Fri Sep 17, 4:04am

Fri Sep 17, 3:04am

Fri Sep 17, 2:04am

Fri Sep 17, 1:04am

Fri Sep 17, 12:04am

Thu Sep 16, 11:04pm

Thu Sep 16, 10:04pm

Thu Sep 16, 9:04pm

Thu Sep 16, 8:04pm

Thu Sep 16, 7:04pm

Thu Sep 16, 6:04pm

Thu Sep 16, 5:04pm

Thu Sep 16, 4:04pm

Thu Sep 16, 3:04pm

Thu Sep 16, 2:04pm

Thu Sep 16, 1:05pm

Thu Sep 16, 12:04pm

Thu Sep 16, 11:05am

Thu Sep 16, 10:05am

Thu Sep 16, 9:04am

Thu Sep 16, 8:04am

Thu Sep 16, 7:04am

Thu Sep 16, 6:04am

Thu Sep 16, 5:04am

Thu Sep 16, 4:04am

Thu Sep 16, 3:04am

Thu Sep 16, 2:04am

Thu Sep 16, 1:04am

Thu Sep 16, 12:04am

Wed Sep 15, 11:04pm

Wed Sep 15, 10:04pm

Wed Sep 15, 9:04pm

Wed Sep 15, 8:04pm

Wed Sep 15, 7:04pm

Wed Sep 15, 6:04pm

Wed Sep 15, 5:05pm

Wed Sep 15, 4:04pm

Wed Sep 15, 3:04pm

Wed Sep 15, 2:04pm

Wed Sep 15, 1:04pm

Meta data:

ID: a4515c98-c89e-40d5-9b30-2d447a6e40d4
Link: https://api.weather.gov/products/a4515c98-c89e-40d5-9b30-2d447a6e40d4